TimeMST,TemperatureF,Dew PointF,Humidity,Sea Level PressureIn,VisibilityMPH,Wind Direction,Wind SpeedMPH,Gust SpeedMPH,PrecipitationIn,Events,Conditions,WindDirDegrees,DateUTC
12:53 AM,43.0,21.0,42,29.59,10.0,SSW,19.6,-,N/A,,Clear,200,2013-01-28 07:53:00
1:53 AM,44.1,17.1,34,29.57,10.0,SSW,18.4,-,N/A,,Scattered Clouds,210,2013-01-28 08:53:00
2:53 AM,46.0,15.1,29,29.55,10.0,SSW,21.9,-,N/A,,Scattered Clouds,200,2013-01-28 09:53:00
3:53 AM,42.1,16.0,35,29.55,10.0,South,21.9,-,N/A,,Scattered Clouds,190,2013-01-28 10:53:00
4:53 AM,42.1,18.0,38,29.55,10.0,South,16.1,-,N/A,,Mostly Cloudy,190,2013-01-28 11:53:00
5:07 AM,33.8,17.6,52,29.63,10.0,SSE,15.0,-,N/A,,Mostly Cloudy,150,2013-01-28 12:07:00
5:53 AM,41.0,19.0,41,29.56,10.0,South,18.4,-,N/A,,Mostly Cloudy,190,2013-01-28 12:53:00
6:53 AM,37.9,19.0,47,29.57,10.0,South,11.5,-,N/A,,Mostly Cloudy,180,2013-01-28 13:53:00
7:53 AM,39.0,19.9,46,29.55,10.0,WSW,6.9,-,N/A,,Scattered Clouds,250,2013-01-28 14:53:00
8:53 AM,37.9,19.9,48,29.55,9.0,West,4.6,-,N/A,,Mostly Cloudy,260,2013-01-28 15:53:00
9:53 AM,46.9,23.0,39,29.53,10.0,WNW,5.8,-,N/A,,Mostly Cloudy,300,2013-01-28 16:53:00
10:53 AM,50.0,24.1,36,29.48,10.0,WNW,5.8,-,N/A,,Scattered Clouds,300,2013-01-28 17:53:00
11:53 AM,55.9,21.9,27,29.43,10.0,SW,11.5,18.4,N/A,,Scattered Clouds,230,2013-01-28 18:53:00
12:53 PM,51.1,24.1,35,29.42,10.0,North,16.1,-,N/A,,Mostly Cloudy,10,2013-01-28 19:53:00
1:53 PM,48.0,28.0,46,29.45,10.0,North,25.3,32.2,N/A,,Mostly Cloudy,10,2013-01-28 20:53:00
2:53 PM,41.0,25.0,53,29.49,10.0,NNE,26.5,33.4,N/A,,Mostly Cloudy,30,2013-01-28 21:53:00
3:53 PM,36.0,24.1,62,29.59,10.0,North,23.0,29.9,N/A,,Mostly Cloudy,10,2013-01-28 22:53:00
4:14 PM,33.8,24.8,70,29.64,5.0,North,20.7,28.8,0.00,Snow,Light Snow,10,2013-01-28 23:14:00
4:39 PM,32.0,26.6,80,29.66,2.0,NNE,15.0,-,0.00,Snow,Light Snow,30,2013-01-28 23:39:00
4:45 PM,32.0,26.6,80,29.67,1.8,NE,13.8,-,0.00,Snow,Light Snow,40,2013-01-28 23:45:00
4:53 PM,30.9,26.1,82,29.64,0.8,NE,13.8,-,0.01,Snow,Light Snow,50,2013-01-28 23:53:00
5:01 PM,30.2,26.6,86,29.66,0.8,NE,16.1,-,0.00,Snow,Light Snow,50,2013-01-29 00:01:00
5:14 PM,30.2,26.6,86,29.66,0.8,NE,15.0,-,0.02,Snow,Light Snow,50,2013-01-29 00:14:00
5:24 PM,30.2,26.6,86,29.67,1.0,NNE,11.5,-,0.02,Snow,Light Snow,30,2013-01-29 00:24:00
5:32 PM,30.2,26.6,86,29.67,0.8,NE,11.5,-,0.03,Snow,Light Snow,40,2013-01-29 00:32:00
5:53 PM,28.9,26.1,89,29.69,0.8,ENE,9.2,-,0.05,Snow,Light Snow,70,2013-01-29 00:53:00
6:03 PM,28.4,26.6,93,29.69,0.5,ENE,8.1,-,0.02,Fog-Snow,Snow,60,2013-01-29 01:03:00
6:53 PM,28.9,26.1,89,29.72,0.5,NNE,8.1,-,0.10,Snow,Light Snow,30,2013-01-29 01:53:00
7:15 PM,28.4,24.8,86,29.72,1.2,ENE,4.6,-,0.01,Snow,Light Snow,60,2013-01-29 02:15:00
7:35 PM,28.4,26.6,93,29.71,1.0,NE,4.6,-,0.02,Snow,Light Snow,50,2013-01-29 02:35:00
7:48 PM,28.4,24.8,86,29.72,2.0,Calm,Calm,-,0.03,Snow,Light Snow,0,2013-01-29 02:48:00
7:53 PM,28.0,26.1,92,29.73,2.0,Calm,Calm,-,0.03,Snow,Light Snow,0,2013-01-29 02:53:00
7:59 PM,28.4,24.8,86,29.72,3.0,Calm,Calm,-,0.00,Snow,Light Snow,0,2013-01-29 02:59:00
8:53 PM,28.0,24.1,85,29.73,7.0,NNE,6.9,-,0.00,Snow,Light Snow,20,2013-01-29 03:53:00
9:53 PM,27.0,21.9,81,29.69,8.0,NE,12.7,-,0.00,Snow,Light Snow,50,2013-01-29 04:53:00
10:53 PM,26.1,21.9,84,29.69,9.0,East,11.5,-,N/A,,Overcast,80,2013-01-29 05:53:00
11:00 PM,26.6,21.2,80,29.72,10.0,East,13.8,-,N/A,,Overcast,80,2013-01-29 06:00:00
11:23 PM,26.6,21.2,80,29.71,10.0,ENE,13.8,-,N/A,,Overcast,70,2013-01-29 06:23:00
11:49 PM,26.6,21.2,80,29.71,8.0,ENE,16.1,-,0.00,,Overcast,60,2013-01-29 06:49:00
11:53 PM,25.0,21.0,85,29.66,8.0,ENE,17.3,-,0.00,,Overcast,60,2013-01-29 06:53:00